Regional Weather Roundup
Issued by NWS

Home | Current Version | Previous Version | Text Only | Print | Product List | Glossary On
Versions: 1 2 3 4 5 6 7 8 9 10 11 12 13 14 15 16 17 18 19 20 21 22 23 24 25 26 27 28 29 30 31 32 33 34 35 36 37 38 39 40 41 42 43 44 45 46 47 48 49 50
000
ASUS44 KMEG 052110
RWRTN
TENNESSEE HOURLY STATE WEATHER ROUNDUP
NATIONAL WEATHER SERVICE MEMPHIS TN
400 PM CDT TUE MAY 05 2015

TNZ002-004-019-021-049-052-054-088>092-052200-
WEST TENNESSEE

CITY           SKY/WX    TMP DP  RH WIND       PRES   REMARKS
MEMPHIS INTL   MOSUNNY   85  51  31 SE13      30.14F
NWS MEMPHIS      N/A     86 N/A N/A MISG        N/A
JACKSON        PTSUNNY   81  54  39 S6        30.16F
DYERSBURG      MOSUNNY   82  48  30 SE8       30.16F
PARIS          SUNNY     82  54  36 SE9       30.18F
LEXINGTON      SUNNY     82  52  34 S6        30.17F
$$

TNZ008-025-027-028-033-062-065-066-052200-
NORTH MIDDLE TENNESSEE

CITY           SKY/WX    TMP DP  RH WIND       PRES   REMARKS
NASHVILLE      PTSUNNY   86  51  29 S12       30.20F
CLARKSVILLE    MOSUNNY   83  52  34 S5        30.18F
SMYRNA         MOSUNNY   84  53  34 VRB6      30.20F
COOKEVILLE     SUNNY     84  55  37 SW7       30.22F
CROSSVILLE     PTSUNNY   77  49  37 CALM      30.26F
$$

TNZ061-075-076-078-094-096-097-052200-
SOUTH MIDDLE TENNESSEE

CITY           SKY/WX    TMP DP  RH WIND       PRES   REMARKS
FAYETTEVILLE     N/A     81  52  36 SW6       30.21F
TULLAHOMA      SUNNY     81  48  32 CALM      30.23F
WINCHESTER     SUNNY     82  54  36 SE6       30.22F
MCMINNVILLE    PTSUNNY   79  57  47 CALM      30.23F
COLUMBIA       SUNNY     81  55  41 S6        30.19F
SHELBYVILLE    MOSUNNY   82  57  42 E6        30.22F
$$

TNZ017-018-042-046-047-052200-
NORTHEAST TENNESSEE

CITY           SKY/WX    TMP DP  RH WIND       PRES   REMARKS
TRI CITIES     MOSUNNY   84  44  24 MISG      30.23F
ELIZABETHTON   PTCLDY    82  48  30 W6        30.23F
$$

TNZ012-013-036-069-073-074-052200-
CENTRAL EAST TENNESSEE

CITY           SKY/WX    TMP DP  RH WIND       PRES   REMARKS
KNOXVILLE      MOSUNNY   83  52  34 NE6       30.21F
OAK RIDGE      MOSUNNY   84  50  30 CALM      30.22F
GATLINBURG     CLEAR     82  52  34 E8        30.21F
MORRISTOWN     CLEAR     82  52  34 VRB5      30.23F
$$

TNZ083-085-099-052200-
SOUTHEAST TENNESSEE

CITY           SKY/WX    TMP DP  RH WIND       PRES   REMARKS
CHATTANOOGA    MOSUNNY   81  52  36 VRB3      30.21F
$$

SKY/WX REPORTED AS FAIR MEANS FEW OR NO CLOUDS BELOW
12 THOUSAND FEET.



USA.gov is the U.S. government's official web portal to all federal, state and local government web resources and services.